USGS - science for a changing world

Kansas Water Science Center

Jump to content

Jump back to navigation

Current Streamflow Conditions

Welcome to the U.S. Geological Survey (USGS) Web page for the water resources of Kansas. Here you'll find information on Kansas's rivers and streams. You'll also find information about groundwater, water quality, and many other topics. The USGS operates the most extensive satellite network of stream-gaging stations in the state, many of which form the backbone of flood-warning systems.

The Kansas Water Science Center provides current ("real-time") stream stage in Kansas and streamflow, water-quality, and groundwater levels for over 200 sites.
The USGS provides National ("real-time") stream stage and streamflow, water-quality, and groundwater levels for over 7000 sites.

Of Current Interest

Scientific Investigations Report: Spatial variability of harmful algal blooms in Milford Lake, Kansas, July and August 2015

Status of groundwater levels and storage volume in the Equus Beds aquifer near Wichita, Kansas, January 2016

Predicting cyanobacterial abundance, microcystin, and geosmin in a eutrophic drinking-water reservoir using a 14-year dataset.

Spatiotemporal variability of inorganic nutrients during wastewater effluent dominated streamflow conditions in Indian Creek, Johnson County, Kansas, 2012-15.

Cyanobacterial harmful algal blooms and U.S. Geological Survey science capabilities.

Elucidation of taste- and odor-producing bacteria and toxigenic cyanobacteria in a Midwestern drinking water supply reservoir by shotgun metagenomics analysis.

USGS WaterAlert Service Turn Around Don't Drown

Now you can receive instant, customized updates about water conditions by subscribing to WaterAlert, a new service from the U.S. Geological Survey. WaterAlert allows you to receive daily or hourly updates about current conditions in rivers, lakes and groundwater when they match conditions of concern to you.

Kansas Earthquakes - Last 30 days

  1. 2.1 18km E of Anthony, Kansas 2017-02-16 21:49:31 CST
  2. 1.52 18km E of Anthony, Kansas 2017-02-16 19:45:35 CST
  3. 1.7 18km E of Anthony, Kansas 2017-02-16 11:38:03 CST
  4. 2.38 18km E of Anthony, Kansas 2017-02-16 11:37:50 CST
  5. 2.7 19km E of Anthony, Kansas 2017-02-16 07:42:01 CST
  6. 1.53 18km E of Anthony, Kansas 2017-02-15 15:14:22 CST
  7. 1.81 19km SSW of Conway Springs, Kansas 2017-02-14 08:07:03 CST
  8. 1.63 19km SSW of Conway Springs, Kansas 2017-02-14 08:03:41 CST
  9. 2.02 6km ESE of Anthony, Kansas 2017-02-14 00:38:23 CST
  10. 3.3 20km E of Caldwell, Kansas 2017-02-13 15:39:58 CST
  11. 1.74 19km SSW of Conway Springs, Kansas 2017-02-12 15:47:59 CST
  12. 3.1 16km NW of Harper, Kansas 2017-02-12 10:31:48 CST
  13. 1.79 18km SE of Anthony, Kansas 2017-02-12 03:55:47 CST
  14. 1.85 6km ESE of Anthony, Kansas 2017-02-10 11:15:44 CST
  15. 2.9 20km E of Caldwell, Kansas 2017-02-08 16:20:43 CST
  16. 1.73 19km SE of Anthony, Kansas 2017-02-07 22:19:55 CST
  17. 2.7 21km E of Caldwell, Kansas 2017-02-07 21:14:48 CST
  18. 2.08 19km WNW of Caldwell, Kansas 2017-02-07 15:28:28 CST
  19. 1.76 18km SSE of Anthony, Kansas 2017-02-07 09:59:47 CST
  20. 1.62 6km ESE of Anthony, Kansas 2017-02-05 22:52:58 CST
  21. 1.56 6km ESE of Anthony, Kansas 2017-02-05 22:46:00 CST
  22. 2.17 19km SE of Anthony, Kansas 2017-02-05 02:45:56 CST
  23. 1.63 19km SE of Anthony, Kansas 2017-02-05 01:14:11 CST
  24. 2.17 19km SE of Anthony, Kansas 2017-02-04 21:41:39 CST
  25. 1.81 19km SE of Anthony, Kansas 2017-02-04 21:02:03 CST
  26. 1.67 16km W of Caldwell, Kansas 2017-02-04 01:28:02 CST
  27. 1.54 18km W of Caldwell, Kansas 2017-02-03 17:24:57 CST
  28. 1.79 2km E of Anthony, Kansas 2017-02-03 12:48:52 CST
  29. 1.95 16km W of Caldwell, Kansas 2017-02-02 23:39:00 CST
  30. 1.53 16km W of Caldwell, Kansas 2017-02-02 22:18:06 CST
  31. 1.6 18km SSE of Anthony, Kansas 2017-02-01 23:20:24 CST
  32. 2.11 9km SSW of Anthony, Kansas 2017-02-01 02:27:07 CST
  33. 2.9 2km WSW of South Hutchinson, Kansas 2017-01-31 05:08:43 CST
  34. 1.73 19km E of Anthony, Kansas 2017-01-29 14:55:41 CST
  35. 1.93 11km ENE of Caldwell, Kansas 2017-01-29 00:57:52 CST
  36. 2.3 2km W of South Hutchinson, Kansas 2017-01-28 21:33:05 CST
  37. 1.79 12km WSW of Conway Springs, Kansas 2017-01-25 09:54:18 CST
  38. 2.2 3km W of Buhler, Kansas 2017-01-24 23:51:00 CST
  39. 1.71 9km S of Anthony, Kansas 2017-01-24 23:11:47 CST
  40. 2.14 9km SSE of Anthony, Kansas 2017-01-23 19:31:54 CST
  41. 1.58 18km SSE of Anthony, Kansas 2017-01-23 17:47:52 CST
  42. 2.32 18km SSE of Anthony, Kansas 2017-01-23 17:26:37 CST

Highlighted Publications

The Kansas Water Science Center produces publications about water resources.   Search our publications

07156900: Flow=19.7cfs,Stage=2.21ft,Floodstage=5ft,2017-02-22 01:00,Low,Cimarron River near Forgan, OK 06824000: Flow=26cfs,Stage=1.85ft,2017-02-22 00:45,>90,Rock Creek at Parks, Nebr. 07144910: Flow=7.3cfs,Stage=2.54ft,Floodstage=9ft,2017-02-22 02:00,<10,SF NINNESCAH R NR PRATT, KS 07142300: Flow=0.51cfs,Stage=3.21ft,Floodstage=9ft,2017-02-22 01:00,<10,RATTLESNAKE C NR MACKSVILLE, KS 06854500: Flow=134cfs,Stage=0.98ft,Floodstage=10ft,2017-02-22 01:15,<10,REPUBLICAN R AT SCANDIA, KS 06827500: Flow=0.00cfs,Stage=0.00ft,Floodstage=9ft,2017-02-22 00:30,<10,South Fork Republican River near Benkelman, Nebr. 07179500: Flow=57cfs,Stage=8.46ft,2017-02-22 02:00,76-90,NEOSHO R AT COUNCIL GROVE, KS 07167500: Flow=58cfs,Stage=2.74ft,2017-02-22 01:15,76-90,OTTER C AT CLIMAX, KS 07151500: Flow=282cfs,Stage=2.74ft,Floodstage=10ft,2017-02-22 02:00,76-90,CHIKASKIA R NR CORBIN, KS 07147800: Flow=1470cfs,Stage=3.96ft,Floodstage=18ft,2017-02-22 02:00,76-90,WALNUT R AT WINFIELD, KS 07147070: Flow=139cfs,Stage=2.55ft,2017-02-22 01:30,76-90,WHITEWATER R AT TOWANDA, KS 07146500: Flow=1890cfs,Stage=4.68ft,Floodstage=11ft,2017-02-22 02:00,76-90,ARKANSAS R AT ARKANSAS CITY, KS 07145700: Flow=64cfs,Stage=4.87ft,Floodstage=19ft,2017-02-22 02:00,76-90,SLATE C AT WELLINGTON, KS 07145500: Flow=596cfs,Stage=3.81ft,Floodstage=17ft,2017-02-22 02:00,76-90,NINNESCAH R NR PECK, KS 07145200: Flow=253cfs,Stage=4.06ft,Floodstage=8ft,2017-02-22 02:00,76-90,SF NINNESCAH R NR MURDOCK, KS 06873000: Flow=54cfs,Stage=2.04ft,Floodstage=8.5ft,2017-02-22 01:15,76-90,SF SOLOMON R AB WEBSTER RE, KS 06871500: Flow=14cfs,Stage=3.60ft,Floodstage=9ft,2017-02-22 01:45,76-90,BOW C NR STOCKTON, KS 06871000: Flow=30cfs,Stage=3.28ft,Floodstage=11ft,2017-02-22 01:30,76-90,NF SOLOMON R AT GLADE, KS 06868200: Flow=45cfs,Stage=3.66ft,2017-02-22 01:45,76-90,SALINE R AT WILSON DAM, KS 06818000: Flow=44300cfs,Stage=8.38ft,Floodstage=17ft,2017-02-22 01:30,76-90,Missouri River at St. Joseph, MO 06813500: Flow=44900cfs,Stage=9.09ft,Floodstage=17ft,2017-02-22 01:30,76-90,Missouri River at Rulo, NE 07188000: Flow=399cfs,Stage=5.53ft,Floodstage=20ft,2017-02-22 01:00,10-24,Spring River near Quapaw, OK 07186000: Flow=134cfs,Stage=1.43ft,Floodstage=19ft,2017-02-22 01:30,10-24,Spring River near Waco, MO 07179795: Flow=1.3cfs,Stage=4.58ft,2017-02-22 01:30,10-24,N COTTONWOOD R BL MARION LK, KS 07157500: Flow=7.2cfs,Stage=2.50ft,Floodstage=6.5ft,2017-02-22 01:30,10-24,CROOKED C NR ENGLEWOOD, KS 07142575: Flow=12cfs,Stage=11.82ft,Floodstage=17ft,2017-02-22 01:30,10-24,RATTLESNAKE C NR ZENITH, KS 07139000: Flow=0.00cfs,Stage=5.24ft,Floodstage=10ft,2017-02-22 01:30,10-24,ARKANSAS R AT GARDEN CITY, KS 06917500: Flow=23cfs,Stage=7.47ft,Floodstage=38ft,2017-02-22 01:30,10-24,MARMATON R NR FORT SCOTT, KS 06917000: Flow=22cfs,Stage=3.49ft,Floodstage=22ft,2017-02-22 01:15,10-24,L OSAGE R AT FULTON, KS 06916600: Flow=238cfs,Stage=4.46ft,Floodstage=27ft,2017-02-22 01:45,10-24,MARAIS DES CYGNES R NR KS-MO ST LINE, KS 06915800: Flow=175cfs,Stage=4.56ft,Floodstage=25ft,2017-02-22 01:15,10-24,MARAIS DES CYGNES R AT LA CYGNE, KS 06893500: Flow=23cfs,Stage=4.17ft,Floodstage=34ft,2017-02-22 01:45,10-24,Blue River at Kansas City, MO 06893080: Flow=4.5cfs,Stage=3.63ft,Floodstage=16ft,2017-02-22 01:45,10-24,BLUE R NR STANLEY, KS 06891500: Flow=4.2cfs,Stage=4.13ft,Floodstage=23ft,2017-02-22 01:45,10-24,WAKARUSA R NR LAWRENCE, KS 06884025: Flow=142cfs,Stage=1.99ft,Floodstage=19ft,2017-02-22 01:00,10-24,Little Blue River at Hollenberg, KS 06864000: Flow=17cfs,Stage=3.49ft,Floodstage=18ft,2017-02-22 01:30,10-24,SMOKY HILL R NR RUSSELL, KS 06861000: Flow=0.11cfs,Stage=0.46ft,Floodstage=7ft,2017-02-22 01:30,10-24,SMOKY HILL R NR ARNOLD, KS 06860000: Flow=0.06cfs,Stage=3.85ft,Floodstage=9ft,2017-02-22 01:30,10-24,SMOKY HILL R AT ELKADER, KS 06853500: Flow=113cfs,Stage=2.08ft,Floodstage=11ft,2017-02-22 01:30,10-24,REPUBLICAN R NR HARDY, NE 07185000: Flow=678cfs,Stage=3.06ft,Floodstage=15ft,2017-02-22 01:30,25-75,Neosho River near Commerce, OK 07184000: Flow=9.2cfs,Stage=1.16ft,Floodstage=12ft,2017-02-22 01:45,25-75,LIGHTNING C NR MCCUNE, KS 07183500: Flow=474cfs,Stage=7.76ft,Floodstage=21ft,2017-02-22 01:00,25-75,NEOSHO R NR PARSONS, KS 07183000: Flow=357cfs,Stage=7.25ft,Floodstage=15ft,2017-02-22 01:00,25-75,NEOSHO R NR IOLA, KS 07182510: Flow=343cfs,Stage=6.63ft,Floodstage=27ft,2017-02-22 01:15,25-75,NEOSHO R AT BURLINGTON, KS 07182250: Flow=249cfs,Stage=3.44ft,Floodstage=32ft,2017-02-22 02:00,25-75,COTTONWOOD R NR PLYMOUTH, KS 07180500: Flow=32cfs,Stage=4.44ft,2017-02-22 01:15,25-75,CEDAR C NR CEDAR POINT, KS 07180400: Flow=101cfs,Stage=3.31ft,Floodstage=22ft,2017-02-22 02:00,25-75,COTTONWOOD R NR FLORENCE, KS 07179730: Flow=178cfs,Stage=3.86ft,Floodstage=26ft,2017-02-22 01:15,25-75,NEOSHO R NR AMERICUS, KS 07172000: Flow=127cfs,Stage=1.99ft,2017-02-22 02:00,25-75,CANEY R NR ELGIN, KS 07170500: Flow=303cfs,Stage=2.78ft,Floodstage=30ft,2017-02-22 02:00,25-75,VERDIGRIS R AT INDEPENDENCE, KS 07169800: Flow=86cfs,Stage=3.29ft,2017-02-22 01:00,25-75,ELK R AT ELK FALLS, KS 07169500: Flow=70cfs,Stage=3.28ft,Floodstage=17ft,2017-02-22 02:00,25-75,FALL R AT FREDONIA, KS 07166500: Flow=96cfs,Stage=3.58ft,Floodstage=19ft,2017-02-22 01:45,25-75,VERDIGRIS R NR ALTOONA, KS 07149000: Flow=75cfs,Stage=0.79ft,Floodstage=10ft,2017-02-22 01:30,25-75,MEDICINE LODGE R NR KIOWA, KS 07144780: Flow=84cfs,Stage=6.41ft,2017-02-22 01:30,25-75,NF NINNESCAH R AB CHENEY RE, KS 07144550: Flow=482cfs,Stage=1.64ft,Floodstage=12ft,2017-02-22 02:00,25-75,ARKANSAS R AT DERBY, KS 07144300: Flow=333cfs,Stage=3.56ft,2017-02-22 01:45,25-75,ARKANSAS R AT WICHITA, KS 07144200: Flow=89cfs,Stage=1.34ft,2017-02-22 01:00,25-75,L ARKANSAS R AT VALLEY CENTER, KS 07143665: Flow=18cfs,Stage=0.41ft,Floodstage=22ft,2017-02-22 01:15,25-75,L ARKANSAS R AT ALTA MILLS, KS 07143330: Flow=170cfs,Stage=2.28ft,Floodstage=10ft,2017-02-22 01:30,25-75,ARKANSAS R NR HUTCHINSON, KS 07143300: Flow=9.3cfs,Stage=4.43ft,Floodstage=18ft,2017-02-22 01:30,25-75,COW C NR LYONS, KS 07141900: Flow=0.48cfs,Stage=2.82ft,Floodstage=24ft,2017-02-22 01:45,25-75,WALNUT C AT ALBERT, KS 07141780: Flow=6.4cfs,Stage=7.29ft,Floodstage=29ft,2017-02-22 01:15,25-75,WALNUT C AT NEKOMA, KS 07141300: Flow=12cfs,Stage=1.20ft,Floodstage=12ft,2017-02-22 01:30,25-75,ARKANSAS R AT GREAT BEND, KS 07138000: Flow=106cfs,Stage=4.32ft,Floodstage=10ft,2017-02-22 01:15,25-75,ARKANSAS R AT SYRACUSE, KS 07137500: Flow=118cfs,Stage=2.95ft,Floodstage=8ft,2017-02-22 01:15,25-75,ARKANSAS R NR COOLIDGE, KS 06915000: Flow=9.3cfs,Stage=1.99ft,2017-02-22 01:30,25-75,BIG BULL C NR HILLSDALE, KS 06913500: Flow=66cfs,Stage=3.73ft,Floodstage=31ft,2017-02-22 01:30,25-75,MARAIS DES CYGNES R NR OTTAWA, KS 06913000: Flow=63cfs,Stage=1.22ft,Floodstage=20ft,2017-02-22 01:30,25-75,MARAIS DES CYGNES R NR POMONA, KS 06912500: Flow=26cfs,Stage=2.78ft,2017-02-22 01:45,25-75,HUNDRED AND TEN MILE C NR QUENEMO, KS 06911900: Flow=31cfs,Stage=8.19ft,Floodstage=19ft,2017-02-22 01:00,25-75,DRAGOON C NR BURLINGAME, KS 06911000: Flow=23cfs,Stage=2.20ft,2017-02-22 01:45,25-75,MARAIS DES CYGNES R AT MELVERN, KS 06910800: Flow=48cfs,Stage=2.73ft,Floodstage=19ft,2017-02-22 01:45,25-75,MARAIS DES CYGNES R NR READING, KS 06893300: Flow=16cfs,Stage=5.66ft,Floodstage=14ft,2017-02-22 01:15,25-75,INDIAN C AT OVERLAND PARK, KS 06893000: Flow=46500cfs,Stage=10.61ft,Floodstage=32ft,2017-02-22 01:30,25-75,Missouri River at Kansas City, MO 06892350: Flow=2550cfs,Stage=5.38ft,Floodstage=26ft,2017-02-22 01:45,25-75,KANSAS R AT DESOTO, KS 06892000: Flow=38cfs,Stage=2.49ft,Floodstage=23ft,2017-02-22 01:30,25-75,STRANGER C NR TONGANOXIE, KS 06891000: Flow=2330cfs,Stage=2.68ft,Floodstage=17ft,2017-02-22 01:30,25-75,KANSAS R AT LECOMPTON, KS 06890100: Flow=43cfs,Stage=2.46ft,Floodstage=27ft,2017-02-22 01:45,25-75,DELAWARE R NR MUSCOTAH, KS 06889500: Flow=52cfs,Stage=0.52ft,Floodstage=29ft,2017-02-22 02:00,25-75,SOLDIER C NR TOPEKA, KS 06889200: Flow=27cfs,Stage=6.98ft,Floodstage=26ft,2017-02-22 01:30,25-75,SOLDIER C NR DELIA, KS 06889000: Flow=2190cfs,Stage=5.52ft,Floodstage=26ft,2017-02-22 01:30,25-75,KANSAS R AT TOPEKA, KS 06888500: Flow=34cfs,Stage=2.63ft,Floodstage=21ft,2017-02-22 01:45,25-75,MILL C NR PAXICO, KS 06888350: Flow=2120cfs,Stage=6.38ft,Floodstage=20ft,2017-02-22 01:30,25-75,KANSAS R NR BELVUE, KS 06888000: Flow=42cfs,Stage=4.18ft,2017-02-22 01:45,25-75,VERMILLION C NR WAMEGO, KS 06887000: Flow=541cfs,Stage=1.50ft,Floodstage=19ft,2017-02-22 01:00,25-75,BIG BLUE R NR MANHATTAN, KS 06885500: Flow=53cfs,Stage=3.50ft,Floodstage=19ft,2017-02-22 01:30,25-75,BLACK VERMILLION R NR FRANKFORT, KS 06884400: Flow=224cfs,Stage=3.92ft,Floodstage=21ft,2017-02-22 01:30,25-75,L BLUE R NR BARNES, KS 06884200: Flow=26cfs,Stage=1.87ft,Floodstage=18ft,2017-02-22 01:45,25-75,MILL C AT WASHINGTON, KS 06882510: Flow=317cfs,Stage=11.95ft,Floodstage=35ft,2017-02-22 01:30,25-75,BIG BLUE R AT MARYSVILLE, KS 06882000: Flow=309cfs,Stage=4.02ft,Floodstage=20ft,2017-02-22 01:00,25-75,Big Blue River at Barneston, Nebr. 06879100: Flow=899cfs,Stage=6.16ft,Floodstage=21ft,2017-02-22 01:30,25-75,KANSAS R AT FORT RILEY, KS 06878000: Flow=44cfs,Stage=4.75ft,Floodstage=19ft,2017-02-22 01:45,25-75,CHAPMAN C NR CHAPMAN, KS 06877600: Flow=708cfs,Stage=7.11ft,Floodstage=26ft,2017-02-22 01:45,25-75,SMOKY HILL R AT ENTERPRISE, KS 06876900: Flow=262cfs,Stage=4.85ft,Floodstage=24ft,2017-02-22 01:30,25-75,SOLOMON R AT NILES, KS 06876700: Flow=18cfs,Stage=4.58ft,Floodstage=18ft,2017-02-22 01:45,25-75,SALT C NR ADA, KS 06876000: Flow=170cfs,Stage=3.82ft,2017-02-22 01:45,25-75,SOLOMON R AT BELOIT, KS 06875900: Flow=152cfs,Stage=8.60ft,Floodstage=21ft,2017-02-22 01:30,25-75,SOLOMON R NR GLEN ELDER, KS 06874000: Flow=33cfs,Stage=4.02ft,Floodstage=14ft,2017-02-22 01:30,25-75,SF SOLOMON R AT OSBORNE, KS 06873460: Flow=9.5cfs,Stage=4.73ft,Floodstage=12ft,2017-02-22 01:30,25-75,SF SOLOMON R AT WOODSTON, KS 06872500: Flow=34cfs,Stage=4.09ft,Floodstage=15ft,2017-02-22 01:30,25-75,NF SOLOMON R AT PORTIS, KS 06869500: Flow=91cfs,Stage=6.26ft,Floodstage=25ft,2017-02-22 01:30,25-75,SALINE R AT TESCOTT, KS 06867000: Flow=60cfs,Stage=6.04ft,Floodstage=18ft,2017-02-22 01:30,25-75,SALINE R NR RUSSELL, KS 06866500: Flow=105cfs,Stage=4.26ft,Floodstage=20ft,2017-02-22 01:45,25-75,SMOKY HILL R NR MENTOR, KS 06866000: Flow=83cfs,Stage=6.61ft,Floodstage=21ft,2017-02-22 01:30,25-75,SMOKY HILL R AT LINDSBORG, KS 06865500: Flow=65cfs,Stage=3.17ft,2017-02-22 01:30,25-75,SMOKY HILL R NR LANGLEY, KS 06864500: Flow=40cfs,Stage=1.39ft,Floodstage=20ft,2017-02-22 01:30,25-75,SMOKY HILL R AT ELLSWORTH, KS 06863500: Flow=6.9cfs,Stage=5.15ft,Floodstage=26ft,2017-02-22 01:30,25-75,BIG C NR HAYS, KS 06862850: Flow=3.5cfs,Stage=2.43ft,Floodstage=11ft,2017-02-22 01:00,25-75,SMOKY HILL R BL SCHOENCHEN, KS 06862700: Flow=3.5cfs,Stage=3.51ft,2017-02-22 01:30,25-75,SMOKY HILL R NR SCHOENCHEN, KS 06857100: Flow=236cfs,Stage=5.29ft,2017-02-22 01:30,25-75,REPUBLICAN R AT JUNCTION CITY, KS 06856600: Flow=348cfs,Stage=7.23ft,Floodstage=15ft,2017-02-22 01:30,25-75,REPUBLICAN R AT CLAY CENTER, KS 06856000: Flow=215cfs,Stage=5.10ft,Floodstage=15ft,2017-02-22 01:30,25-75,REPUBLICAN R AT CONCORDIA, KS 06853800: Flow=16cfs,Stage=1.84ft,Floodstage=16ft,2017-02-22 01:45,25-75,WHITE ROCK C NR BURR OAK, KS 06848500: Flow=1.3cfs,Stage=1.69ft,Floodstage=21ft,2017-02-22 01:30,25-75,PRAIRIE DOG C NR WOODRUFF, KS 06847900: Flow=5.7cfs,Stage=3.65ft,Floodstage=11ft,2017-02-22 01:45,25-75,PRAIRIE DOG C AB KEITH SEBELIUS LAKE, KS 06815000: Flow=177cfs,Stage=4.29ft,Floodstage=27ft,2017-02-22 01:45,25-75,Big Nemaha River at Falls City, Nebr. 06814000: Flow=22cfs,Stage=1.40ft,Floodstage=21ft,2017-02-22 01:45,25-75,TURKEY C NR SENECA, KS 385520094420000: Flow=15cfs,2013-07-17 23:45,Not ranked,INDIAN C AT COLLEGE BLVD, JOHNSON CO, KS 375350097262800: Stage=5.09ft,2017-02-22 01:00,Not ranked,L ARKANSAS R UPSTREAM OF ASR FAC NR SEDGWICK, KS 07187600: Flow=399cfs,Stage=3.09ft,Floodstage=14ft,2017-02-22 01:30,Not ranked,SPRING R NR BAXTER SPRINGS, KS 07186055: Flow=18cfs,Stage=5.59ft,2017-02-22 01:45,Not ranked,COW C NR SCAMMON, KS 07185090: Flow=3.46cfs,Stage=8.44ft,2017-02-22 01:15,Not ranked,Tar Creek near Commerce, OK 07184500: Flow=13cfs,Stage=5.93ft,2017-02-22 01:00,Not ranked,LABETTE C NR OSWEGO, KS 07183300: Stage=11.91ft,Floodstage=29ft,2017-02-22 01:15,Not ranked,NEOSHO R NR ERIE, KS 07182395: Stage=-0.84ft,2017-02-22 02:00,Not ranked,NEOSHO R AT HARTFORD, KS 07182390: Flow=566cfs,Stage=2.07ft,Floodstage=22ft,2017-02-22 01:30,Not ranked,NEOSHO R AT NEOSHO RAPIDS, KS 07182260: Flow=267cfs,Stage=2.38ft,Floodstage=20ft,2017-02-22 01:30,Not ranked,COTTONWOOD R AT EMPORIA, KS 07182200: Flow=43cfs,Stage=7.01ft,2017-02-22 01:30,Not ranked,SF COTTONWOOD R NR BAZAAR, KS 07180200: Stage=5.22ft,2017-02-22 01:30,Not ranked,COTTONWOOD R AT MARION, KS 07179785: Flow=3.0cfs,Stage=9.81ft,2017-02-22 01:30,Not ranked,NF COTTONWOOD R NR DURHAM, KS 07179750: Flow=213cfs,Stage=4.38ft,2017-02-22 01:30,Not ranked,NEOSHO R AT BURLINGAME RD NR EMPORIA, KS 07179710: Stage=11.85ft,2017-02-22 01:00,Not ranked,NEOSHO R NR DUNLAP, KS 07179700: Flow=39cfs,Stage=9.71ft,2017-02-22 01:15,Not ranked,ROCK C NR DUNLAP, KS 07179300: Flow=4.9cfs,Stage=7.84ft,2017-02-22 01:45,Not ranked,NEOSHO R NR PARKERVILLE, KS 07170990: Flow=354cfs,Stage=3.75ft,2017-02-22 01:45,Not ranked,VERDIGRIS R AT COFFEYVILLE, KS 07170700: Stage=2.89ft,2017-02-22 01:00,Not ranked,BIG HILL C NR CHERRYVALE, KS 07165750: Flow=71cfs,Stage=7.44ft,2017-02-22 02:00,Not ranked,VERDIGRIS R NR VIRGIL, KS 07157940: Flow=16cfs,Stage=5.76ft,2017-02-22 02:00,Not ranked,BLUFF C NR BUTTERMILK, KS 07157740: Flow=37cfs,Stage=7.91ft,2017-02-22 01:30,Not ranked,CIMARRON R NR BUTTERMILK, KS 07148111: Flow=348cfs,Stage=5.83ft,2017-02-22 01:30,Not ranked,GROUSE C NR SILVERDALE, KS 07147900: Stage=5.04ft,Floodstage=18ft,2017-02-22 01:15,Not ranked,WALNUT R AT ARKANSAS CITY, KS 07147190: Stage=4.62ft,Floodstage=21ft,2017-02-22 01:15,Not ranked,WHITEWATER R AT AUGUSTA, KS 07146800: Flow=37cfs,Stage=6.25ft,Floodstage=21ft,2017-02-22 01:00,Not ranked,WB WALNUT R NR EL DORADO, KS 07145600: Flow=1400cfs,Stage=8.44ft,Floodstage=17ft,2017-02-22 01:45,Not ranked,ARKANSAS R ON HWY 160 AT OXFORD, KS 07144795: Flow=0.43cfs,Stage=1.23ft,2015-11-12 10:00,Not ranked,NF NINNESCAH R AT CHENEY DAM, KS 07144790: Stage=1421.87ft,2017-02-22 01:00,Not ranked,CHENEY RE NR CHENEY, KS 07144570: Flow=538cfs,Stage=6.65ft,Floodstage=16.5ft,2017-02-22 01:15,Not ranked,ARKANSAS R AT MULVANE, KS 07144490: Flow=12cfs,Stage=7.55ft,2017-02-22 01:15,Not ranked,COWSKIN C AT KELLOGG ST, WICHITA, KS 07144486: Flow=0.78cfs,Stage=5.03ft,2017-02-22 02:00,Not ranked,CALFSKIN C AT 119TH ST, WICHITA, KS 07144480: Flow=8.9cfs,Stage=7.75ft,Floodstage=18ft,2017-02-22 01:30,Not ranked,COWSKIN C AT 119TH ST AT WICHITA, KS 07144470: Stage=10.90ft,2017-02-22 01:15,Not ranked,COWSKIN C AT 29TH ST NORTH OF WICHITA, KS 07144301: Flow=0.00cfs,Stage=6.48ft,2017-02-22 01:45,Not ranked,FLOODWAY AT ARKANSAS R AT WICHITA, KS 07144201: Flow=0.00cfs,Stage=1.98ft,2017-02-22 01:00,Not ranked,FLOODWAY AT L ARKANSAS R AT VALLEY CENTER, KS 07144100: Flow=70cfs,Stage=3.17ft,Floodstage=22ft,2017-02-22 01:15,Not ranked,L ARKANSAS R NR SEDGWICK, KS 07144050: Flow=12cfs,Stage=-0.67ft,Floodstage=19ft,2017-02-22 01:15,Not ranked,EMMA C AT SEDGWICK, KS 07143672: Flow=37cfs,Stage=6.07ft,Floodstage=25ft,2017-02-22 01:30,Not ranked,L ARKANSAS R AT HWY 50 NR HALSTEAD, KS 07143375: Flow=173cfs,Stage=5.43ft,2017-02-22 01:15,Not ranked,ARKANSAS R NR MAIZE, KS 07143310: Stage=1.90ft,Floodstage=9.5ft,2017-02-22 01:15,Not ranked,COW C NR HUTCHINSON, KS 07142680: Flow=94cfs,Stage=8.81ft,2017-02-22 01:00,Not ranked,ARKANSAS R NR NICKERSON, KS 07142019: Flow=0.90cfs,Stage=2.05ft,2017-02-22 02:00,Not ranked,CHEYENNE BOTTOMS DV NR GREAT BEND, KS 07141220: Flow=0.00cfs,Stage=3.17ft,2017-02-22 02:00,Not ranked,ARKANSAS R NR LARNED, KS 07141200: Flow=0.00cfs,Stage=5.79ft,Floodstage=31ft,2017-02-22 01:30,Not ranked,PAWNEE R AT ROZEL, KS 07141000: Flow=0.00cfs,Stage=3.59ft,2017-02-22 01:45,Not ranked,BUCKNER C AT HANSTON, KS 07140900: Flow=2.5cfs,Stage=2.75ft,2017-02-22 01:15,Not ranked,BUCKNER C NR JETMORE, KS 07140890: Flow=1.3cfs,Stage=3.02ft,2017-02-22 01:45,Not ranked,BUCKNER C BL HORSETHIEF RE NR JETMORE, KS 07140880: Flow=2.2cfs,Stage=4.09ft,2017-02-22 01:15,Not ranked,BUCKNER C AB HORSETHIEF RE NR JETMORE, KS 07140850: Flow=0.00cfs,Stage=2.26ft,Floodstage=30ft,2017-02-22 01:00,Not ranked,PAWNEE R NR BURDETT, KS 07139500: Stage=6.00ft,Floodstage=11ft,2017-02-22 01:00,Not ranked,ARKANSAS R AT DODGE CITY, KS 07138075: Flow=5.0cfs,2016-11-18 23:45,Stage=1.46ft,2017-02-22 01:00:00,Not ranked,FARMERS DITCH NR DEERFIELD, KS 07138070: Flow=0.00cfs,Stage=5.80ft,Floodstage=14ft,2017-02-22 01:45,Not ranked,ARKANSAS R AT DEERFIELD, KS 07138064: Flow=0.00cfs,Stage=1.95ft,2017-02-22 01:15,Not ranked,SOUTHSIDE DITCH RETURN NR DEERFIELD, KS 07138063: Flow=4.3cfs,2016-10-07 23:45,Stage=1.26ft,2017-02-22 01:00:00,Not ranked,SOUTHSIDE DITCH NR LAKIN, KS 07138050: Stage=3.97ft,2017-02-22 01:00:00,Not ranked,Equipment malfunction,AMAZON GREAT EASTERN DITCH NR LAKIN, KS 07138020: Flow=110cfs,Stage=6.16ft,2017-02-22 01:45,Not ranked,ARKANSAS R AT KENDALL, KS 07137010: Flow=0.00cfs,Stage=1.96ft,2017-02-22 01:45,Not ranked,FRONTIER DITCH RETURN NR COOLIDGE, KS 07137000: Flow=0.00cfs,Stage=9.18ft,2017-02-22 01:45,Not ranked,FRONTIER DITCH NR COOLIDGE, KS 07134990: Not ranked,Seasonal site,WILD HORSE CREEK ABOVE HOLLY, CO 06917630: Flow=2.1cfs,Stage=1.84ft,2017-02-22 00:15,Not ranked,East Drywood Creek at Prairie State Park 06917560: Flow=35cfs,Stage=2.40ft,Floodstage=25ft,2017-02-22 01:15,Not ranked,Marmaton River near Richards, MO 06917380: Flow=194cfs,2008-11-12 23:45,Not ranked,MARMATON R NR MARMATON, KS 06917240: Flow=4.5cfs,Stage=0.00ft,2017-02-22 02:00,Not ranked,MARMATON R NR UNIONTOWN, KS 06914995: Stage=915.19ft,2017-02-22 01:30,Not ranked,HILLSDALE LK NR HILLSDALE, KS 06914990: Flow=1.5cfs,Stage=3.26ft,2017-02-22 01:30,Not ranked,L BULL C NR SPRING HILL, KS 06914950: Flow=1.8cfs,Stage=2.06ft,2017-02-22 02:00,Not ranked,BIG BULL C NR EDGERTON, KS 06914500: Flow=33cfs,Stage=5.71ft,Floodstage=23ft,2017-02-22 01:30,Not ranked,POTTAWATOMIE C AT LANE, KS 06914100: Flow=9.1cfs,Stage=3.10ft,Floodstage=23ft,2017-02-22 01:45,Not ranked,POTTAWATOMIE C NR SCIPIO, KS 06912490: Stage=972.12ft,2017-02-22 01:45,Not ranked,POMONA LK NR QUENEMO, KS 06911490: Flow=4.4cfs,Stage=0.63ft,Floodstage=10ft,2017-02-22 01:30,Not ranked,SALT C AT LYNDON, KS 06910997: Stage=1034.15ft,2017-02-22 01:45,Not ranked,MELVERN LK NR MELVERN, KS 06893562: 2016-12-29 10:30,Not ranked,Brush Creek at Rockhill Road in Kansas City, MO 06893557: Flow=9.4cfs,Stage=35.79ft,Floodstage=47ft,2017-02-22 01:15,Not ranked,Brush Creek at Ward Parkway in Kansas City, MO 06893400: 2016-12-29 13:30,Not ranked,Indian Creek at 103rd St in Kansas City, MO 06893390: Flow=22cfs,Stage=10.17ft,Floodstage=20ft,2017-02-22 01:30,Not ranked,INDIAN C AT STATE LINE RD, LEAWOOD, KS 06893350: Flow=3.2cfs,Stage=1.87ft,2017-02-22 01:15,Not ranked,TOMAHAWK C NR OVERLAND PARK, KS 06893150: Not ranked,Temporarily unavailable,Blue River at Blue Ridge Blvd Ext in KC, MO 06893100: Flow=4.7cfs,Stage=5.04ft,2017-02-22 01:30,Not ranked,BLUE R AT KENNETH RD, OVERLAND PARK, KS 06892950: Stage=11.59ft,Floodstage=33ft,2017-02-22 01:45,Not ranked,KANSAS R AT KANSAS CITY, KS 06892518: Flow=2770cfs,Stage=10.55ft,2017-02-22 01:45,Not ranked,KANSAS R NR LAKE QUIVIRA, KS 06892513: Flow=7.5cfs,Stage=48.55ft,2017-02-22 01:30,Not ranked,MILL C AT JOHNSON DRIVE, SHAWNEE, KS 06892495: Flow=6.2cfs,Stage=57.28ft,2017-02-22 01:45,Not ranked,CEDAR C NR DESOTO, KS 06892494: Stage=3.17ft,2017-02-22 02:00,Not ranked,CAMP C AT 95TH ST NR DESOTO, KS 06892493: Stage=76.64ft,2017-02-22 02:00,Not ranked,CEDAR C AT 95TH ST NR DESOTO, KS 06892360: Flow=5.6cfs,Stage=4.88ft,2017-02-22 01:30,Not ranked,KILL C AT 95TH ST NR DESOTO, KS 06891850: Flow=20cfs,Stage=2.44ft,Floodstage=17ft,2017-02-22 01:30,Not ranked,STRANGER C AT EASTON, KS 06891810: Flow=199cfs,2015-06-09 23:45,Not ranked,STRANGER C NR POTTER, KS 06891478: Stage=874.49ft,2017-02-22 01:00,Not ranked,CLINTON LK NR LAWRENCE, KS 06891260: Flow=7.9cfs,Stage=3.75ft,2017-02-22 01:30,Not ranked,WAKARUSA R NR RICHLAND, KS 06891200: Stage=3.21ft,Floodstage=15ft,2017-02-22 01:15,Not ranked,WAKARUSA R AT WAKARUSA, KS 06891080: Flow=2150cfs,2017-02-22 01:45,Stage=9.23ft,2017-02-22 01:50:00,Floodstage=18ft,Not ranked,KANSAS R AT LAWRENCE, KS 06890900: Stage=28.07ft,2017-02-22 01:30:00,Not ranked,DELAWARE R AT PERRY, KS 06890898: Stage=889.10ft,2017-02-22 01:30,Not ranked,PERRY LK NR PERRY, KS 06889630: Flow=1.4cfs,Stage=4.53ft,Floodstage=24ft,2017-02-22 01:15,Not ranked,SHUNGANUNGA C AT TOPEKA, KS 06889585: Stage=4.82ft,Floodstage=15ft,2017-02-22 01:15,Not ranked,SHUNGANUNGA C AT GAGE BLVD, TOPEKA, KS 06888990: Flow=2250cfs,Stage=5.61ft,2017-02-22 01:30,Not ranked,KANSAS R AT TOPEKA WATER PLANT, KS 06888700: Stage=7.26ft,Floodstage=25ft,2017-02-22 01:30,Not ranked,CROSS C AT ROSSVILLE, KS 06888300: Flow=39cfs,Stage=8.83ft,Floodstage=27ft,2017-02-22 01:00,Not ranked,ROCK C NR LOUISVILLE, KS 06887500: Flow=1840cfs,Stage=4.09ft,Floodstage=19ft,2017-02-22 01:30,Not ranked,KANSAS R AT WAMEGO, KS 06886900: Stage=1072.32ft,2017-02-22 01:00,Not ranked,TUTTLE C LK NR MANHATTAN, KS 06886850: Stage=5.81ft,2017-02-19 08:45,Not ranked,MILL C NR RILEY, KS 06886500: Flow=22cfs,Stage=1.13ft,Floodstage=16ft,2017-02-22 01:15,Not ranked,FANCY C AT WINKLER, KS 06884700: Stage=15.64ft,Floodstage=26ft,2017-02-22 01:15,Not ranked,BIG BLUE R AT BLUE RAPIDS, KS 06879820: Stage=6.21ft,Floodstage=18ft,2017-02-22 02:00,Not ranked,KANSAS R AT MANHATTAN, KS 06879815: Stage=2.56ft,2017-02-22 02:00,Not ranked,WILDCAT C AT SETH CHILDS RD, MANHATTAN, KS 06879810: Flow=8.5cfs,Stage=2.64ft,Floodstage=14ft,2017-02-22 01:15,Not ranked,WILDCAT C AT SCENIC DRIVE, MANHATTAN, KS 06879805: Stage=7.25ft,2017-02-22 01:00,Not ranked,WILDCAT C AT KEATS, KS 06879650: Flow=0.00cfs,Stage=2.12ft,2017-02-22 01:45,Not ranked,KINGS C NR MANHATTAN, KS 06878600: Flow=39cfs,Stage=5.83ft,Floodstage=21ft,2017-02-22 01:15,Not ranked,LYON C NR JUNCTION CITY, KS 06876440: Flow=258cfs,Stage=3.15ft,Floodstage=26ft,2017-02-22 01:15,Not ranked,SOLOMON R NR MINNEAPOLIS, KS 06876070: Stage=8.09ft,2017-02-22 01:15,Not ranked,SOLOMON R NR SIMPSON, KS 06870300: Flow=10cfs,Stage=19.96ft,2017-02-22 01:15,Not ranked,GYPSUM C NR GYPSUM, KS 06870200: Stage=5.79ft,Floodstage=27ft,2017-02-22 01:45,Not ranked,SMOKY HILL R AT NEW CAMBRIA, KS 06869950: Flow=7.5cfs,Stage=2.95ft,Floodstage=24ft,2017-02-22 01:00,Not ranked,MULBERRY C NR SALINA, KS 06868850: Flow=85cfs,Stage=11.71ft,Floodstage=30ft,2017-02-22 01:45,Not ranked,SALINE R AT LINCOLN, KS 06868100: Stage=1516.20ft,2017-02-22 01:30,Not ranked,WILSON LK NR WILSON, KS 06867500: Flow=3.5cfs,Stage=9.11ft,2017-02-22 01:30,Not ranked,PARADISE C NR PARADISE, KS 06866900: Flow=1.6cfs,Stage=2.42ft,Floodstage=13ft,2017-02-22 01:00,Not ranked,SALINE R NR WAKEENEY, KS 06865000: Stage=1462.95ft,2017-02-22 01:30,Not ranked,KANOPOLIS LK NR KANOPOLIS, KS 06864050: Flow=58cfs,2011-06-08 23:45,Not ranked,SMOKY HILL R NR BUNKER HILL, KS 06863420: Flow=3.1cfs,Stage=1.67ft,2017-02-22 01:15,Not ranked,BIG C NR ELLIS, KS 06863000: Flow=1.9cfs,Stage=1.54ft,2017-02-22 02:00,Not ranked,SMOKY HILL R AT PFEIFER, KS 06861500: Stage=2118.74ft,2017-02-22 01:15,Not ranked,CEDAR BLUFF RE NR ELLIS, KS 06860900: Flow=0.00cfs,Stage=6.97ft,2017-02-22 01:30,Not ranked,HACKBERRY C NR TREGO CENTER, KS 06857050: Stage=1141.29ft,2017-02-22 01:30,Not ranked,MILFORD LK NR JUNCTION CITY, KS 06855850: Flow=25cfs,Stage=4.38ft,2017-02-22 01:15,Not ranked,BUFFALO C 4 MI E OF JAMESTOWN, KS 06854000: Stage=0.05ft,2017-02-22 01:45,Not ranked,WHITE ROCK C AT LOVEWELL, KS 06853020: Flow=74cfs,Stage=4.27ft,Floodstage=11ft,2017-02-22 01:30,Not ranked,Republican River at Guide Rock, Nebr. 06852500: Not ranked,Seasonal site,Courtland Canal at Nebraska-Kansas Stateline 06846500: Flow=0.00cfs,Stage=2.78ft,Floodstage=16ft,2017-02-22 01:00,Not ranked,BEAVER C AT CEDAR BLUFFS, KS 06845110: Stage=5.24ft,2017-02-22 01:30:00,Floodstage=17ft,Not ranked,Ice affected,SAPPA C NR LYLE, KS 06827000: Flow=11cfs,Stage=3.74ft,2017-02-22 01:45,Not ranked,SF REPUBLICAN R NR CO-KS ST LINE, KS 06823500: Stage=1.12ft,2017-02-22 00:45:00,Floodstage=11ft,Not ranked,Ice affected,Buffalo Creek near Haigler, Nebr. 06821500: Not ranked,Ice affected,Arikaree River at Haigler, Nebr. 06820475: Stage=5.42ft,Floodstage=20ft,2017-02-22 01:00,Not ranked,MISSOURI R AT LEAVENWORTH, KS 06818300: Stage=10.56ft,Floodstage=22ft,2017-02-22 02:00,Not ranked,MISSOURI R AT ATCHISON, KS Go to WaterWatch (offsite) for a larger map with additional options
USGS Home Water Resources Biology Geography Geology Geospatial

Accessibility FOIA Privacy Policies and Notices

Take Pride in America logo USA.gov logo U.S. Department of the Interior | U.S. Geological Survey
Page Contact Information: GS-W-KS_info@usgs.gov
Page Last Modified: 2017-01-31 15:33:42 CST